Location: Unspecified
(0.0000°N, 0.0000°E)
Time: 04:42:51
(UTC+00:00)

DOVE 4 - Pass Details

Date: 11 December 2017
Orbit: 588 x 804 km, 97.7° (Epoch: 19 January)

Event Time Altitude Azimuth Distance (km) Brightness Sun altitude
Rises 05:16:26 0° 349° (N) 2,887 ? -8.5°
Reaches altitude 10° 05:18:59 10° 335° (NNW) 1,956 ? -7.9°
Maximum altitude 05:22:20 23° 282° (WNW) 1,286 ? -7.1°
Drops below altitude 10° 05:25:37 10° 229° (SW) 1,918 ? -6.4°
Sets 05:28:06 0° 214° (SW) 2,815 ? -5.8°
